[[{"header":{"parameterUnit":"m.s-1","parameterCategory":1,"la1":30.2992,"la2":30.254,"lo1":-89.0895,"lo2":-89.0443,"dy":0.0025,"dx":0.0025,"nx":19,"ny":19,"refTime":"2026-04-30T09:00:00:Z","depth":0,"parameterNumber":2,"parameterNumberName":"U-component_of_WINDS"},"data":[0,0,0,-4.5132,-4.5132,-4.5096,-4.5096,-4.5103,-4.5103,0,0,0,0,0,0,0,0,0,0,0,-4.5173,-4.5174,-4.5132,-4.5132,-4.5096,-4.5096,-4.5103,-4.5103,0,0,0,0,0,0,0,0,0,0,0,-4.5172,-4.5174,-4.5175,-4.5132,-4.5096,-4.5096,-4.5103,-4.5111,0,0,0,0,0,0,0,0,0,0,-4.5137,-4.5204,-4.5173,-4.5175,-4.5132,-4.5096,-4.5096,-4.5111,-4.5111,-4.5141,0,-4.5176,0,-4.514,-4.5107,-4.5107,0,0,0,-4.5109,-4.5205,-4.5167,-4.5175,-4.5132,-4.5097,-4.5106,-4.511,-4.511,-4.5141,-4.5175,-4.5174,-4.514,-4.5107,-4.5108,-4.5358,-4.536,0,0,-4.5111,-4.5183,-4.5168,-4.5169,-4.5176,-4.5107,-4.5105,-4.5109,-4.5151,-4.5175,-4.5173,-4.514,-4.5108,-4.5108,-4.5356,-4.5358,0,0,0,-4.5132,-4.5186,-4.5147,-4.517,-4.516,-4.5107,-4.5104,-4.5151,-4.5132,-4.5173,-4.514,-4.5108,-4.5109,-4.5353,-4.5357,-4.5538,0,0,0,-4.5132,-4.5198,-4.5149,-4.5193,-4.5161,-4.5155,-4.5147,-4.5132,-4.513,-4.514,-4.5108,-4.5109,-4.535,-4.5355,-4.5527,-4.5612,0,0,0,-4.5165,-4.5201,-4.5207,-4.5197,-4.5184,-4.5153,-4.5133,-4.513,-4.5111,-4.5107,-4.511,-4.5349,-4.5354,-4.5518,-4.5596,-4.5699,0,0,0,-4.5221,-4.5369,-4.5211,-4.5363,-4.5185,-4.5265,-4.5132,-4.5188,-4.5206,-4.5108,-4.5351,-4.5356,-4.5515,-4.5587,-4.569,-4.58,-4.5852,0,0,-4.5448,-4.5398,-4.5482,-4.5339,-4.5466,-4.5264,-4.5417,-4.5365,-4.5299,-4.5342,-4.5347,-4.5531,-4.5595,-4.5697,-4.6118,-4.6161,0,0,0,-4.5578,-4.564,-4.5657,-4.5677,-4.5641,-4.5617,-4.5533,-4.5514,-4.5547,-4.5336,-4.5593,-4.5629,-4.5686,-4.5735,-4.5771,-4.5816,-4.5382,-4.5381,-4.5381,-4.6004,-4.591,-4.6042,-4.5945,-4.5967,-4.5879,-4.5888,-4.5847,-4.5747,-4.5809,-4.5822,-4.6089,-4.6149,-4.6176,-4.6223,-4.5872,-4.5872,-4.5873,-4.5873,-4.6328,-4.64,-4.6262,-4.6341,-4.6242,-4.6307,-4.6229,-4.6156,-4.6203,-4.6072,-4.6117,-4.5983,-4.6225,-4.6262,-4.5886,-4.5884,-4.5882,-4.5881,-4.588,-4.6598,-4.6616,-4.6589,-4.6609,-4.6635,-4.653,-4.6582,-4.6489,-4.6402,-4.6447,-4.6451,-4.6447,-4.6433,-4.6455,-4.6456,-4.6457,-4.6458,-4.6458,-4.6459,-4.6888,-4.6852,-4.6906,-4.688,-4.6881,-4.687,-4.6784,-4.6782,-4.6757,-4.6685,-4.6685,-4.658,-4.6265,-4.6189,-4.6473,-4.647,-4.6469,-4.6467,-4.6466,-4.7254,-4.7156,-4.724,-4.7242,-4.7202,-4.7235,-4.7115,-4.712,-4.7105,-4.7134,-4.7018,-4.6801,-4.6744,-4.6715,-4.6651,-4.7037,-4.7037,-4.7037,-4.7037,-4.7482,-4.7443,-4.7508,-4.7516,-4.7513,-4.7413,-4.7513,-4.7447,-4.7364,-4.735,-4.728,-4.7187,-4.7161,-4.712,-4.7082,-4.7021,-4.7492,-4.7493,-4.7493,-4.7702,-4.7658,-4.7761,-4.7677,-4.764,-4.7611,-4.7701,-4.7717,-4.7602,-4.751,-4.7336,-4.7317,-4.7166,-4.7121,-4.7027,-4.697,-4.6857,0,0]},{"header":{"parameterUnit":"m.s-1","parameterCategory":1,"la1":30.2992,"la2":30.254,"lo1":-89.0895,"lo2":-89.0443,"dy":0.0025,"dx":0.0025,"nx":19,"ny":19,"refTime":"2026-04-30T09:00:00:Z","depth":0,"parameterNumber":3,"parameterNumberName":"V-component_of_WINDS"},"data":[0,0,0,-4.1197,-4.1197,-4.1191,-4.119,-4.119,-4.119,0,0,0,0,0,0,0,0,0,0,0,-4.1206,-4.1206,-4.1197,-4.1197,-4.1191,-4.119,-4.119,-4.119,0,0,0,0,0,0,0,0,0,0,0,-4.1206,-4.1206,-4.1207,-4.1197,-4.1191,-4.119,-4.119,-4.1191,0,0,0,0,0,0,0,0,0,0,-4.1196,-4.1212,-4.1206,-4.1207,-4.1197,-4.1191,-4.119,-4.1191,-4.1191,-4.1197,0,-4.1206,0,-4.1198,-4.119,-4.1191,0,0,0,-4.1191,-4.1212,-4.1204,-4.1207,-4.1197,-4.1191,-4.1192,-4.1191,-4.1191,-4.1197,-4.1205,-4.1205,-4.1198,-4.1191,-4.1191,-4.1245,-4.1245,0,0,-4.1191,-4.1208,-4.1204,-4.1204,-4.1209,-4.1192,-4.1192,-4.1191,-4.1201,-4.1205,-4.1205,-4.1198,-4.1191,-4.1191,-4.1244,-4.1245,0,0,0,-4.1196,-4.1209,-4.12,-4.1205,-4.1203,-4.1192,-4.1192,-4.1201,-4.1197,-4.1205,-4.1198,-4.1191,-4.1191,-4.1244,-4.1244,-4.1286,0,0,0,-4.1196,-4.1212,-4.1201,-4.1211,-4.1203,-4.1203,-4.1202,-4.1197,-4.1196,-4.1198,-4.1191,-4.1191,-4.1243,-4.1244,-4.1284,-4.1303,0,0,0,-4.1204,-4.1212,-4.1214,-4.1212,-4.121,-4.1202,-4.1198,-4.1196,-4.1192,-4.1191,-4.1191,-4.1243,-4.1244,-4.1282,-4.13,-4.1321,0,0,0,-4.1216,-4.1252,-4.1215,-4.1252,-4.121,-4.1229,-4.1198,-4.1211,-4.1214,-4.1191,-4.1243,-4.1244,-4.1281,-4.1297,-4.1319,-4.1341,-4.1353,0,0,-4.1271,-4.126,-4.128,-4.1246,-4.1276,-4.1229,-4.1263,-4.125,-4.1234,-4.1241,-4.1242,-4.1285,-4.1299,-4.132,-4.1413,-4.1422,0,0,0,-4.1303,-4.1317,-4.1321,-4.1326,-4.1317,-4.131,-4.129,-4.1284,-4.129,-4.1242,-4.1298,-4.1306,-4.1318,-4.1328,-4.1336,-4.1343,-4.125,-4.125,-4.125,-4.1404,-4.1381,-4.1412,-4.1388,-4.1393,-4.137,-4.1371,-4.1359,-4.1335,-4.1349,-4.1351,-4.1409,-4.1422,-4.1428,-4.1436,-4.1361,-4.1362,-4.1362,-4.1362,-4.1481,-4.1497,-4.1463,-4.1481,-4.1455,-4.1469,-4.1447,-4.1429,-4.1437,-4.1407,-4.1416,-4.1384,-4.1438,-4.1444,-4.1365,-4.1364,-4.1364,-4.1364,-4.1363,-4.1544,-4.1547,-4.154,-4.1542,-4.1546,-4.1519,-4.1528,-4.1504,-4.1482,-4.1491,-4.1489,-4.1488,-4.1483,-4.1492,-4.1492,-4.1492,-4.1492,-4.1492,-4.1493,-4.1611,-4.1602,-4.1613,-4.1605,-4.1603,-4.1597,-4.1573,-4.157,-4.156,-4.1542,-4.1542,-4.1515,-4.1449,-4.1432,-4.1496,-4.1495,-4.1495,-4.1494,-4.1494,-4.1696,-4.1672,-4.1689,-4.1687,-4.1674,-4.1677,-4.1647,-4.1642,-4.1635,-4.1639,-4.161,-4.1565,-4.1552,-4.1545,-4.1531,-4.1616,-4.1616,-4.1616,-4.1616,-4.1748,-4.1738,-4.1749,-4.1747,-4.1742,-4.1716,-4.1731,-4.1711,-4.1687,-4.1681,-4.1665,-4.1644,-4.1639,-4.1628,-4.162,-4.1606,-4.1708,-4.1708,-4.1708,-4.1797,-4.1786,-4.1805,-4.1782,-4.1769,-4.1758,-4.1771,-4.1767,-4.1735,-4.1712,-4.1675,-4.1671,-4.1637,-4.1628,-4.1604,-4.1592,-4.1566,0,0]}]]